contact:dominique.lefevre@mio.osupytheas.fr, maurice.libes@osupytheas.fr, didier.mallarino@osupytheas.fr
Project:EMSO http://www.emso-fr.org/EMSO-France
Depth: 2436.0 m
Title:EMSO Ligure Ouest : Data MII capteur AQUADOPP
Date,Latitude,Longitude,X_East,Y_North,Z_Up,Amplitude_X,Amplitude_Y,Amplitude_Z,Batterie,SoundSpeed,Heading,Pitch,Roll,Pressure,TIS,Speed,Direction
, degrees North, degrees East, m.s-1, m.s-1,m.s-1, 1, 1, 1, Volt, m.s-1, degree, degree, degree, dbar, degree_C, m.s-1, degree
2021-12-05T00:04:03,42.805,6.029,-0.045,0.006,-0.03,99.0,99.0,99.0,13.4,1505.2,330.3,-0.7,1.8,2470.516,13.28,0.045,277.6
2021-12-05T00:07:03,42.805,6.029,-0.014,0.003,-0.026,98.0,101.0,100.0,13.4,1505.2,327.4,-0.8,1.8,2470.53,13.28,0.014,282.1
2021-12-05T00:10:03,42.805,6.029,-0.023,0.02,-0.019,100.0,100.0,99.0,13.4,1505.2,325.4,-0.7,1.8,2470.509,13.28,0.03,311.0
2021-12-05T00:13:03,42.805,6.029,-0.034,-0.016,-0.026,100.0,100.0,100.0,13.4,1505.2,326.2,-0.8,1.8,2470.511,13.28,0.037,244.8
2021-12-05T00:16:03,42.805,6.029,-0.033,-0.016,-0.051,100.0,99.0,99.0,13.4,1505.2,327.9,-0.8,1.8,2470.508,13.28,0.036,244.1
2021-12-05T00:19:03,42.805,6.029,-0.028,0.002,-0.021,99.0,101.0,98.0,13.3,1505.2,326.8,-0.7,1.8,2470.496,13.28,0.028,274.1
2021-12-05T00:22:03,42.805,6.029,-0.052,0.005,-0.027,99.0,101.0,99.0,13.4,1505.2,329.6,-0.8,1.8,2470.524,13.28,0.052,275.5
2021-12-05T00:25:03,42.805,6.029,-0.047,-0.009,-0.047,100.0,98.0,100.0,13.4,1505.2,327.6,-0.8,1.8,2470.476,13.28,0.047,259.2
2021-12-05T00:28:03,42.805,6.029,-0.031,0.009,-0.028,99.0,100.0,99.0,13.4,1505.2,328.9,-0.8,1.8,2470.515,13.28,0.032,286.2
2021-12-05T00:31:03,42.805,6.029,-0.003,-0.024,-0.036,100.0,100.0,99.0,13.4,1505.2,327.0,-0.7,1.8,2470.451,13.28,0.024,187.1
2021-12-05T00:34:03,42.805,6.029,-0.023,0.0,-0.027,98.0,99.0,100.0,13.4,1505.2,327.2,-0.8,1.8,2470.484,13.28,0.023,270.0
2021-12-05T00:37:03,42.805,6.029,-0.024,0.0,-0.028,100.0,100.0,99.0,13.4,1505.2,328.0,-0.7,1.8,2470.494,13.28,0.024,270.0
2021-12-05T00:40:03,42.805,6.029,-0.039,-0.002,-0.01,99.0,100.0,99.0,13.4,1505.2,330.7,-0.8,1.8,2470.466,13.28,0.039,267.1
2021-12-05T00:43:03,42.805,6.029,-0.058,0.0,-0.035,101.0,99.0,99.0,13.4,1505.2,329.5,-0.8,1.8,2470.447,13.28,0.057,270.0
2021-12-05T00:46:03,42.805,6.029,-0.017,-0.033,-0.05,101.0,98.0,99.0,13.4,1505.2,324.5,-0.7,1.8,2470.486,13.28,0.037,207.3
2021-12-05T00:49:03,42.805,6.029,-0.053,0.039,0.034,100.0,101.0,98.0,13.4,1505.2,328.9,-0.7,1.8,2470.512,13.28,0.065,306.3
2021-12-05T00:52:03,42.805,6.029,-0.048,0.018,0.007,99.0,100.0,99.0,13.4,1505.2,326.3,-0.8,1.8,2470.505,13.28,0.051,290.6
2021-12-05T00:55:03,42.805,6.029,-0.022,0.003,-0.017,100.0,100.0,99.0,13.3,1505.2,328.7,-0.8,1.8,2470.535,13.28,0.022,277.8
2021-12-05T00:58:03,42.805,6.029,-0.059,-0.008,-0.049,100.0,99.0,99.0,13.3,1505.2,330.1,-0.8,1.8,2470.505,13.28,0.059,262.3
2021-12-05T01:04:03,42.805,6.029,-0.019,-0.042,-0.106,102.0,101.0,101.0,13.3,1505.2,327.6,-0.8,1.8,2470.555,13.28,0.046,204.3
2021-12-05T01:07:03,42.805,6.029,-0.035,0.01,-0.016,100.0,100.0,99.0,13.4,1505.2,326.2,-0.8,1.8,2470.498,13.28,0.036,285.9
2021-12-05T01:10:03,42.805,6.029,-0.041,-0.024,-0.049,100.0,100.0,98.0,13.3,1505.2,328.1,-0.8,1.8,2470.521,13.28,0.047,239.7
2021-12-05T01:13:03,42.805,6.029,-0.042,-0.002,-0.037,100.0,100.0,99.0,13.3,1505.2,327.2,-0.8,1.8,2470.515,13.28,0.042,267.3
2021-12-05T01:16:03,42.805,6.029,-0.056,0.006,-0.029,101.0,100.0,99.0,13.3,1505.2,326.8,-0.7,1.8,2470.506,13.28,0.056,276.1
2021-12-05T01:19:03,42.805,6.029,-0.013,-0.021,-0.039,100.0,99.0,99.0,13.3,1505.2,329.2,-0.8,1.8,2470.53,13.28,0.024,211.8
2021-12-05T01:22:03,42.805,6.029,-0.014,-0.038,-0.034,98.0,101.0,99.0,13.3,1505.2,326.5,-0.8,1.8,2470.499,13.28,0.04,200.2
2021-12-05T01:25:03,42.805,6.029,-0.025,0.006,-0.008,99.0,100.0,99.0,13.4,1505.2,327.7,-0.7,1.8,2470.528,13.28,0.025,283.5
2021-12-05T01:28:03,42.805,6.029,-0.034,-0.012,-0.033,100.0,100.0,99.0,13.4,1505.2,326.3,-0.8,1.8,2470.492,13.28,0.036,250.6
2021-12-05T01:31:03,42.805,6.029,0.002,-0.004,0.002,99.0,101.0,99.0,13.4,1505.2,328.1,-0.7,1.8,2470.477,13.28,0.004,153.4
2021-12-05T01:34:03,42.805,6.029,-0.033,0.001,-0.009,102.0,98.0,99.0,13.4,1505.2,328.7,-0.7,1.8,2470.472,13.28,0.033,271.7
2021-12-05T01:37:03,42.805,6.029,-0.037,0.007,-0.01,100.0,100.0,98.0,13.3,1505.2,331.2,-0.7,1.8,2470.489,13.28,0.037,280.7
2021-12-05T01:40:03,42.805,6.029,-0.013,-0.038,-0.044,101.0,100.0,99.0,13.4,1505.2,329.4,-0.8,1.8,2470.505,13.28,0.04,198.9
2021-12-05T01:43:03,42.805,6.029,-0.015,-0.002,-0.011,99.0,102.0,100.0,13.3,1505.2,327.8,-0.7,1.8,2470.512,13.28,0.015,262.4
2021-12-05T01:46:03,42.805,6.029,-0.048,0.018,-0.019,100.0,100.0,99.0,13.4,1505.2,327.4,-0.7,1.8,2470.518,13.28,0.051,290.6
2021-12-05T01:49:03,42.805,6.029,-0.034,-0.011,-0.039,100.0,100.0,99.0,13.4,1505.2,326.2,-0.7,1.8,2470.473,13.28,0.035,252.1
2021-12-05T01:52:03,42.805,6.029,-0.025,0.005,-0.029,99.0,100.0,98.0,13.4,1505.2,328.8,-0.8,1.8,2470.533,13.28,0.025,281.3
2021-12-05T01:55:03,42.805,6.029,-0.018,-0.026,-0.046,100.0,99.0,99.0,13.4,1505.2,328.6,-0.7,1.8,2470.487,13.28,0.031,214.7
2021-12-05T01:58:03,42.805,6.029,-0.045,0.011,-0.019,99.0,100.0,100.0,13.4,1505.2,327.6,-0.7,1.8,2470.49,13.28,0.046,283.7
2021-12-05T02:04:03,42.805,6.029,-0.006,-0.012,-0.044,99.0,99.0,99.0,13.3,1505.2,325.3,-0.8,1.8,2470.506,13.28,0.013,206.6
2021-12-05T02:07:03,42.805,6.029,-0.047,-0.015,-0.026,101.0,100.0,100.0,13.3,1505.2,326.0,-0.7,1.8,2470.499,13.28,0.049,252.3
2021-12-05T02:10:03,42.805,6.029,-0.023,0.003,-0.016,99.0,100.0,98.0,13.4,1505.2,326.0,-0.8,1.8,2470.519,13.28,0.023,277.4
2021-12-05T02:13:03,42.805,6.029,-0.043,0.014,-0.021,99.0,99.0,100.0,13.3,1505.2,326.6,-0.8,1.8,2470.501,13.28,0.045,288.0
2021-12-05T02:16:03,42.805,6.029,-0.004,-0.052,-0.07,102.0,98.0,98.0,13.4,1505.2,329.4,-0.8,1.9,2470.526,13.28,0.052,184.4
2021-12-05T02:19:03,42.805,6.029,-0.041,-0.01,-0.02,97.0,100.0,99.0,13.4,1505.2,324.6,-0.8,1.8,2470.513,13.28,0.042,256.3
2021-12-05T02:22:03,42.805,6.029,-0.013,-0.016,-0.04,97.0,100.0,99.0,13.4,1505.2,326.0,-0.8,1.8,2470.501,13.28,0.02,219.1
2021-12-05T02:25:03,42.805,6.029,-0.014,-0.001,0.008,99.0,101.0,99.0,13.3,1505.2,328.7,-0.8,1.8,2470.557,13.28,0.014,265.9
2021-12-05T02:28:03,42.805,6.029,-0.015,-0.031,-0.035,100.0,99.0,99.0,13.4,1505.2,331.6,-0.8,1.8,2470.492,13.28,0.034,205.8
2021-12-05T02:31:03,42.805,6.029,-0.027,-0.019,-0.03,102.0,98.0,99.0,13.4,1505.2,324.8,-0.7,1.8,2470.483,13.28,0.033,234.9
2021-12-05T02:34:03,42.805,6.029,-0.028,-0.001,-0.015,100.0,98.0,99.0,13.4,1505.2,329.4,-0.7,1.8,2470.491,13.28,0.028,268.0
2021-12-05T02:37:03,42.805,6.029,-0.029,-0.005,-0.018,99.0,100.0,98.0,13.4,1505.2,326.9,-0.7,1.8,2470.518,13.28,0.029,260.2
2021-12-05T02:40:03,42.805,6.029,-0.049,0.01,-0.024,100.0,100.0,98.0,13.4,1505.2,327.1,-0.8,1.8,2470.474,13.28,0.05,281.5
2021-12-05T02:43:03,42.805,6.029,-0.021,-0.005,-0.001,98.0,98.0,100.0,13.4,1505.2,330.0,-0.8,1.8,2470.465,13.28,0.021,256.6
2021-12-05T02:46:03,42.805,6.029,-0.012,0.0,-0.022,99.0,101.0,99.0,13.4,1505.2,328.4,-0.7,1.8,2470.433,13.28,0.012,270.0
2021-12-05T02:49:03,42.805,6.029,-0.023,-0.019,-0.031,99.0,100.0,99.0,13.4,1505.2,326.3,-0.7,1.8,2470.448,13.28,0.029,230.4
2021-12-05T02:52:03,42.805,6.029,-0.02,0.02,0.006,99.0,100.0,99.0,13.4,1505.2,326.0,-0.7,1.8,2470.464,13.28,0.028,315.0
2021-12-05T02:55:03,42.805,6.029,-0.034,-0.016,-0.008,99.0,99.0,100.0,13.3,1505.2,328.1,-0.8,1.8,2470.446,13.28,0.037,244.8
2021-12-05T02:58:03,42.805,6.029,-0.044,0.028,-0.009,99.0,99.0,99.0,13.3,1505.2,329.4,-0.7,1.8,2470.511,13.28,0.052,302.5
2021-12-05T03:04:03,42.805,6.029,-0.037,-0.009,-0.029,99.0,99.0,99.0,13.3,1505.2,327.5,-0.8,1.8,2470.503,13.28,0.038,256.3
2021-12-05T03:07:03,42.805,6.029,-0.038,-0.006,-0.034,98.0,101.0,99.0,13.3,1505.2,326.2,-0.7,1.8,2470.544,13.28,0.038,261.0
2021-12-05T03:10:03,42.805,6.029,-0.017,-0.028,-0.037,99.0,100.0,99.0,13.4,1505.2,328.8,-0.7,1.8,2470.51,13.28,0.032,211.3
2021-12-05T03:13:03,42.805,6.029,-0.016,0.0,-0.021,100.0,100.0,99.0,13.3,1505.2,331.1,-0.7,1.8,2470.494,13.28,0.016,270.0
2021-12-05T03:16:03,42.805,6.029,-0.024,-0.008,-0.051,100.0,100.0,99.0,13.4,1505.2,330.2,-0.8,1.8,2470.508,13.28,0.025,251.6
2021-12-05T03:19:03,42.805,6.029,-0.047,0.003,-0.027,99.0,99.0,99.0,13.4,1505.2,329.1,-0.7,1.8,2470.535,13.28,0.047,273.6
2021-12-05T03:22:03,42.805,6.029,-0.022,0.006,-0.026,99.0,99.0,99.0,13.3,1505.2,331.2,-0.7,1.8,2470.506,13.28,0.022,285.3
2021-12-05T03:25:03,42.805,6.029,-0.019,0.0,0.006,101.0,98.0,100.0,13.3,1505.2,328.9,-0.8,1.9,2470.525,13.28,0.019,270.0
2021-12-05T03:28:03,42.805,6.029,-0.028,-0.003,-0.014,101.0,99.0,98.0,13.4,1505.2,326.1,-0.8,1.8,2470.497,13.28,0.028,263.9
2021-12-05T03:31:03,42.805,6.029,-0.036,-0.011,-0.028,98.0,100.0,100.0,13.4,1505.2,326.0,-0.8,1.8,2470.496,13.28,0.037,253.0
2021-12-05T03:34:03,42.805,6.029,-0.023,-0.009,-0.03,100.0,99.0,98.0,13.4,1505.2,326.2,-0.8,1.8,2470.545,13.28,0.024,248.6
2021-12-05T03:37:03,42.805,6.029,-0.034,-0.021,-0.034,101.0,99.0,98.0,13.4,1505.2,331.1,-0.8,1.9,2470.476,13.28,0.039,238.3
2021-12-05T03:40:03,42.805,6.029,-0.022,-0.016,-0.045,100.0,99.0,99.0,13.4,1505.2,328.8,-0.7,1.8,2470.468,13.28,0.027,234.0
2021-12-05T03:43:03,42.805,6.029,-0.05,-0.005,-0.033,100.0,99.0,99.0,13.4,1505.2,331.2,-0.8,1.8,2470.495,13.28,0.05,264.3
2021-12-05T03:46:03,42.805,6.029,-0.032,0.001,-0.035,100.0,99.0,99.0,13.3,1505.2,327.3,-0.7,1.8,2470.511,13.28,0.032,271.8
2021-12-05T03:49:03,42.805,6.029,-0.019,-0.02,-0.03,100.0,100.0,99.0,13.4,1505.2,331.1,-0.7,1.8,2470.528,13.28,0.027,223.5
2021-12-05T03:52:03,42.805,6.029,-0.045,-0.002,-0.065,100.0,101.0,99.0,13.4,1505.2,326.9,-0.7,1.8,2470.488,13.28,0.045,267.5
2021-12-05T03:55:03,42.805,6.029,-0.035,-0.024,-0.063,100.0,99.0,99.0,13.4,1505.2,324.7,-0.8,1.8,2470.495,13.28,0.042,235.6
2021-12-05T03:58:03,42.805,6.029,-0.015,-0.024,-0.033,101.0,99.0,100.0,13.4,1505.2,325.0,-0.7,1.8,2470.518,13.28,0.028,212.0
2021-12-05T04:04:03,42.805,6.029,-0.049,0.021,-0.016,101.0,99.0,99.0,13.4,1505.2,329.4,-0.8,1.8,2470.523,13.28,0.053,293.2
2021-12-05T04:07:03,42.805,6.029,0.007,-0.007,-0.022,99.0,100.0,99.0,13.4,1505.2,330.5,-0.8,1.8,2470.524,13.28,0.009,135.0
2021-12-05T04:10:03,42.805,6.029,-0.018,-0.013,-0.015,100.0,99.0,99.0,13.3,1505.2,329.0,-0.8,1.8,2470.534,13.28,0.022,234.2
2021-12-05T04:13:03,42.805,6.029,-0.039,-0.013,-0.021,99.0,99.0,99.0,13.4,1505.2,331.1,-0.8,1.8,2470.569,13.28,0.041,251.6
2021-12-05T04:16:03,42.805,6.029,-0.037,-0.02,-0.044,100.0,100.0,98.0,13.4,1505.2,325.6,-0.8,1.9,2470.53,13.28,0.042,241.6
2021-12-05T04:19:03,42.805,6.029,-0.004,-0.02,-0.045,100.0,99.0,99.0,13.4,1505.2,325.2,-0.8,1.8,2470.56,13.28,0.02,191.3
2021-12-05T04:22:03,42.805,6.029,-0.027,0.002,0.006,101.0,99.0,98.0,13.3,1505.2,325.5,-0.8,1.9,2470.504,13.28,0.027,274.2
2021-12-05T04:25:03,42.805,6.029,-0.005,-0.012,-0.031,100.0,100.0,99.0,13.4,1505.2,327.8,-0.7,1.8,2470.537,13.28,0.013,202.6
2021-12-05T04:28:03,42.805,6.029,-0.041,-0.013,-0.036,100.0,99.0,99.0,13.3,1505.2,329.4,-0.8,1.8,2470.568,13.28,0.043,252.4
2021-12-05T04:31:03,42.805,6.029,-0.033,0.006,-0.044,99.0,101.0,99.0,13.4,1505.2,331.2,-0.8,1.8,2470.576,13.28,0.033,280.3
2021-12-05T04:34:03,42.805,6.029,-0.034,0.004,-0.024,98.0,101.0,99.0,13.4,1505.2,328.7,-0.8,1.8,2470.568,13.28,0.034,276.7
2021-12-05T04:37:03,42.805,6.029,-0.027,-0.016,0.003,100.0,101.0,98.0,13.4,1505.2,328.9,-0.8,1.8,2470.572,13.28,0.031,239.3
2021-12-05T04:40:03,42.805,6.029,-0.041,-0.019,-0.047,99.0,98.0,100.0,13.4,1505.2,331.5,-0.7,1.8,2470.529,13.28,0.045,245.1
2021-12-05T04:43:03,42.805,6.029,-0.024,-0.007,-0.064,100.0,99.0,98.0,13.3,1505.2,330.1,-0.8,1.8,2470.586,13.28,0.025,253.7
2021-12-05T04:46:03,42.805,6.029,-0.017,0.01,0.0,99.0,101.0,98.0,13.3,1505.2,326.5,-0.7,1.8,2470.567,13.28,0.019,300.5
2021-12-05T04:49:03,42.805,6.029,-0.034,-0.011,-0.031,99.0,100.0,99.0,13.4,1505.2,327.4,-0.7,1.8,2470.58,13.28,0.035,252.1
2021-12-05T04:52:03,42.805,6.029,-0.013,-0.022,-0.041,99.0,100.0,99.0,13.4,1505.2,326.8,-0.8,1.8,2470.593,13.28,0.025,210.6
2021-12-05T04:55:03,42.805,6.029,-0.045,-0.026,-0.049,99.0,100.0,98.0,13.4,1505.2,327.3,-0.7,1.8,2470.573,13.28,0.051,240.0
2021-12-05T04:58:03,42.805,6.029,-0.022,-0.022,-0.031,100.0,100.0,99.0,13.4,1505.2,330.8,-0.7,1.8,2470.568,13.28,0.031,225.0
2021-12-05T05:04:03,42.805,6.029,-0.033,-0.014,-0.042,100.0,99.0,98.0,13.3,1505.2,331.9,-0.8,1.8,2470.603,13.28,0.035,247.0
2021-12-05T05:07:03,42.805,6.029,-0.034,-0.011,-0.049,100.0,99.0,99.0,13.3,1505.2,328.2,-0.8,1.8,2470.581,13.28,0.035,252.1
2021-12-05T05:10:03,42.805,6.029,-0.025,-0.018,-0.01,100.0,99.0,99.0,13.4,1505.2,328.5,-0.7,1.8,2470.557,13.28,0.03,234.2
2021-12-05T05:13:03,42.805,6.029,-0.05,-0.024,-0.053,99.0,99.0,100.0,13.4,1505.2,325.1,-0.8,1.8,2470.616,13.28,0.055,244.4
2021-12-05T05:16:03,42.805,6.029,-0.028,-0.021,-0.06,100.0,99.0,100.0,13.4,1505.2,326.0,-0.7,1.8,2470.598,13.28,0.035,233.1
2021-12-05T05:19:03,42.805,6.029,-0.028,0.0,-0.008,101.0,100.0,99.0,13.4,1505.2,329.1,-0.8,1.8,2470.564,13.28,0.028,270.0
2021-12-05T05:22:03,42.805,6.029,-0.057,-0.006,-0.03,100.0,100.0,99.0,13.3,1505.2,326.5,-0.7,1.8,2470.606,13.28,0.057,264.0
2021-12-05T05:25:03,42.805,6.029,-0.043,-0.015,-0.037,99.0,99.0,100.0,13.4,1505.2,329.2,-0.8,1.8,2470.617,13.28,0.045,250.8
2021-12-05T05:28:03,42.805,6.029,-0.03,-0.021,-0.043,98.0,99.0,100.0,13.4,1505.2,328.5,-0.8,1.8,2470.616,13.28,0.036,235.0
2021-12-05T05:31:03,42.805,6.029,-0.041,-0.002,-0.049,100.0,97.0,99.0,13.3,1505.2,325.9,-0.7,1.8,2470.648,13.28,0.041,267.2
2021-12-05T05:34:03,42.805,6.029,-0.042,0.007,-0.024,101.0,100.0,99.0,13.4,1505.2,328.9,-0.7,1.8,2470.654,13.28,0.042,279.5
2021-12-05T05:37:03,42.805,6.029,-0.029,-0.024,-0.071,100.0,99.0,101.0,13.4,1505.2,327.1,-0.7,1.8,2470.624,13.28,0.037,230.4
2021-12-05T05:40:03,42.805,6.029,-0.039,-0.005,-0.052,99.0,100.0,100.0,13.4,1505.2,329.1,-0.8,1.8,2470.666,13.28,0.039,262.7
2021-12-05T05:43:03,42.805,6.029,-0.032,-0.022,-0.019,100.0,101.0,99.0,13.4,1505.2,329.8,-0.7,1.8,2470.685,13.28,0.038,235.5
2021-12-05T05:46:03,42.805,6.029,-0.05,0.005,-0.068,100.0,100.0,99.0,13.4,1505.2,331.4,-0.8,1.8,2470.656,13.28,0.05,275.7
2021-12-05T05:49:03,42.805,6.029,-0.035,0.02,-0.007,100.0,101.0,98.0,13.3,1505.2,327.0,-0.7,1.8,2470.626,13.28,0.04,299.7
2021-12-05T05:52:03,42.805,6.029,-0.011,-0.02,-0.046,98.0,99.0,100.0,13.4,1505.2,327.3,-0.7,1.8,2470.645,13.28,0.022,208.8
2021-12-05T05:55:03,42.805,6.029,-0.053,-0.015,-0.025,98.0,101.0,100.0,13.4,1505.2,329.1,-0.8,1.8,2470.659,13.28,0.055,254.2
2021-12-05T05:58:03,42.805,6.029,-0.045,0.0,-0.063,100.0,100.0,99.0,13.3,1505.2,325.7,-0.7,1.8,2470.663,13.28,0.045,270.0
2021-12-05T06:04:03,42.805,6.029,-0.018,-0.018,-0.004,100.0,99.0,99.0,13.4,1505.2,324.5,-0.8,1.8,2470.664,13.28,0.025,225.0
2021-12-05T06:07:03,42.805,6.029,-0.004,-0.01,-0.037,100.0,99.0,99.0,13.4,1505.2,329.7,-0.8,1.8,2470.661,13.28,0.01,201.8
2021-12-05T06:10:03,42.805,6.029,-0.036,-0.013,-0.039,99.0,99.0,99.0,13.4,1505.2,326.3,-0.7,1.8,2470.646,13.28,0.038,250.1
2021-12-05T06:13:03,42.805,6.029,-0.024,-0.021,-0.041,101.0,99.0,99.0,13.4,1505.2,326.6,-0.7,1.8,2470.653,13.28,0.031,228.8
2021-12-05T06:16:03,42.805,6.029,-0.055,0.004,-0.018,100.0,100.0,99.0,13.4,1505.2,327.0,-0.8,1.8,2470.717,13.28,0.055,274.2
2021-12-05T06:19:03,42.805,6.029,-0.047,0.002,-0.029,100.0,99.0,100.0,13.3,1505.2,331.8,-0.7,1.8,2470.683,13.28,0.047,272.4
2021-12-05T06:22:03,42.805,6.029,-0.043,-0.01,-0.075,100.0,99.0,99.0,13.3,1505.2,331.0,-0.7,1.8,2470.702,13.28,0.044,256.9
2021-12-05T06:25:03,42.805,6.029,-0.019,0.0,-0.024,99.0,98.0,101.0,13.4,1505.2,330.8,-0.8,1.8,2470.718,13.28,0.019,270.0
2021-12-05T06:28:03,42.805,6.029,-0.04,-0.001,-0.042,100.0,99.0,98.0,13.3,1505.2,331.7,-0.8,1.8,2470.69,13.28,0.04,268.6
2021-12-05T06:31:03,42.805,6.029,-0.028,-0.002,-0.013,98.0,99.0,100.0,13.3,1505.2,330.2,-0.7,1.8,2470.729,13.28,0.028,265.9
2021-12-05T06:34:03,42.805,6.029,-0.028,-0.01,-0.034,99.0,100.0,100.0,13.4,1505.2,331.8,-0.8,1.8,2470.713,13.28,0.029,250.4
2021-12-05T06:37:03,42.805,6.029,-0.04,-0.021,-0.047,101.0,99.0,99.0,13.4,1505.2,328.4,-0.8,1.8,2470.722,13.28,0.045,242.3
2021-12-05T06:40:03,42.805,6.029,-0.049,0.011,-0.019,100.0,100.0,99.0,13.4,1505.2,326.8,-0.7,1.9,2470.737,13.28,0.05,282.7
2021-12-05T06:43:03,42.805,6.029,-0.03,-0.013,-0.04,100.0,100.0,99.0,13.4,1505.2,327.0,-0.7,1.8,2470.742,13.28,0.032,246.6
2021-12-05T06:46:03,42.805,6.029,-0.036,0.007,-0.015,99.0,100.0,99.0,13.4,1505.2,330.0,-0.8,1.8,2470.711,13.28,0.036,281.0
2021-12-05T06:49:03,42.805,6.029,-0.017,-0.024,-0.049,99.0,99.0,100.0,13.4,1505.2,325.1,-0.7,1.8,2470.731,13.28,0.029,215.3
2021-12-05T06:52:03,42.805,6.029,-0.044,-0.016,-0.044,100.0,98.0,100.0,13.4,1505.2,326.0,-0.7,1.8,2470.717,13.28,0.046,250.0
2021-12-05T06:55:03,42.805,6.029,-0.039,-0.009,-0.038,100.0,99.0,99.0,13.4,1505.2,329.2,-0.8,1.8,2470.764,13.28,0.04,257.0
2021-12-05T06:58:03,42.805,6.029,-0.058,-0.008,-0.05,98.0,100.0,99.0,13.3,1505.2,329.1,-0.8,1.8,2470.714,13.28,0.058,262.2
2021-12-05T07:04:03,42.805,6.029,-0.053,0.0,-0.046,100.0,99.0,99.0,13.3,1505.2,330.5,-0.8,1.8,2470.748,13.28,0.053,270.0
2021-12-05T07:07:03,42.805,6.029,-0.014,0.001,-0.005,99.0,100.0,99.0,13.4,1505.2,326.9,-0.8,1.8,2470.691,13.28,0.014,274.1
2021-12-05T07:10:03,42.805,6.029,-0.01,-0.027,-0.033,99.0,100.0,99.0,13.4,1505.2,324.9,-0.7,1.8,2470.713,13.28,0.028,200.3
2021-12-05T07:13:03,42.805,6.029,-0.041,-0.008,-0.033,100.0,99.0,99.0,13.4,1505.2,330.0,-0.7,1.8,2470.725,13.28,0.041,259.0
2021-12-05T07:16:03,42.805,6.029,-0.056,-0.002,-0.059,99.0,101.0,100.0,13.4,1505.2,325.3,-0.7,1.8,2470.73,13.28,0.056,268.0
2021-12-05T07:19:03,42.805,6.029,-0.039,0.011,-0.01,100.0,99.0,100.0,13.4,1505.2,329.6,-0.8,1.9,2470.718,13.28,0.04,285.7
2021-12-05T07:22:03,42.805,6.029,-0.029,-0.003,-0.02,100.0,98.0,99.0,13.4,1505.2,326.8,-0.7,1.8,2470.694,13.28,0.029,264.1
2021-12-05T07:25:03,42.805,6.029,-0.002,-0.021,-0.02,100.0,100.0,99.0,13.4,1505.2,327.7,-0.8,1.8,2470.686,13.28,0.021,185.4
2021-12-05T07:28:03,42.805,6.029,-0.042,-0.013,-0.049,99.0,99.0,100.0,13.3,1505.2,326.6,-0.7,1.8,2470.656,13.28,0.043,252.8
2021-12-05T07:31:03,42.805,6.029,-0.04,0.013,-0.023,99.0,102.0,99.0,13.3,1505.2,331.2,-0.8,1.8,2470.673,13.28,0.042,288.0
2021-12-05T07:34:03,42.805,6.029,-0.041,0.001,-0.034,101.0,101.0,98.0,13.4,1505.2,329.3,-0.7,1.8,2470.677,13.28,0.041,271.4
2021-12-05T07:37:03,42.805,6.029,-0.027,-0.023,-0.055,100.0,99.0,99.0,13.3,1505.2,331.1,-0.7,1.8,2470.669,13.28,0.035,229.6
2021-12-05T07:40:03,42.805,6.029,-0.043,-0.007,-0.022,99.0,101.0,99.0,13.3,1505.2,327.8,-0.7,1.8,2470.688,13.28,0.043,260.8
2021-12-05T07:43:03,42.805,6.029,-0.038,0.016,-0.023,100.0,99.0,99.0,13.4,1505.2,331.5,-0.7,1.8,2470.64,13.28,0.041,292.8
2021-12-05T07:46:03,42.805,6.029,-0.052,-0.009,-0.032,100.0,99.0,99.0,13.4,1505.2,324.6,-0.8,1.8,2470.658,13.28,0.052,260.2
2021-12-05T07:49:03,42.805,6.029,-0.043,0.016,-0.005,99.0,99.0,99.0,13.4,1505.2,328.6,-0.7,1.8,2470.65,13.28,0.045,290.4
2021-12-05T07:52:03,42.805,6.029,-0.035,0.007,-0.028,100.0,100.0,99.0,13.4,1505.2,330.2,-0.8,1.8,2470.666,13.28,0.035,281.3
2021-12-05T07:55:03,42.805,6.029,-0.059,0.008,-0.01,100.0,99.0,99.0,13.4,1505.2,327.0,-0.8,1.8,2470.656,13.28,0.059,277.7
2021-12-05T07:58:03,42.805,6.029,-0.045,-0.012,-0.036,100.0,99.0,98.0,13.3,1505.2,329.8,-0.8,1.8,2470.686,13.28,0.046,255.1
2021-12-05T08:04:03,42.805,6.029,-0.026,0.003,-0.017,100.0,100.0,99.0,13.4,1505.2,330.8,-0.8,1.8,2470.683,13.28,0.026,276.6
2021-12-05T08:07:03,42.805,6.029,-0.045,-0.009,-0.059,99.0,98.0,101.0,13.4,1505.2,328.6,-0.8,1.8,2470.686,13.28,0.045,258.7
2021-12-05T08:10:03,42.805,6.029,-0.045,-0.005,-0.059,100.0,99.0,99.0,13.4,1505.2,328.4,-0.7,1.9,2470.694,13.28,0.045,263.7
2021-12-05T08:13:03,42.805,6.029,-0.04,-0.007,-0.041,100.0,100.0,99.0,13.4,1505.2,329.3,-0.8,1.8,2470.688,13.28,0.04,260.1
2021-12-05T08:16:03,42.805,6.029,-0.044,-0.001,0.008,99.0,100.0,100.0,13.4,1505.2,324.9,-0.8,1.8,2470.714,13.28,0.044,268.7
2021-12-05T08:19:03,42.805,6.029,-0.043,0.014,-0.003,100.0,99.0,100.0,13.4,1505.2,328.1,-0.7,1.8,2470.684,13.28,0.045,288.0
2021-12-05T08:22:03,42.805,6.029,-0.056,0.0,-0.041,100.0,100.0,99.0,13.4,1505.2,330.5,-0.7,1.8,2470.696,13.28,0.056,270.0
2021-12-05T08:25:03,42.805,6.029,-0.017,0.011,-0.018,100.0,98.0,100.0,13.3,1505.2,328.1,-0.8,1.8,2470.7,13.28,0.02,302.9
2021-12-05T08:28:03,42.805,6.029,-0.042,-0.027,-0.075,100.0,99.0,99.0,13.3,1505.2,327.9,-0.7,1.8,2470.727,13.28,0.049,237.3
2021-12-05T08:31:03,42.805,6.029,-0.022,-0.02,-0.059,99.0,100.0,99.0,13.4,1505.2,325.1,-0.8,1.8,2470.716,13.28,0.029,227.7
2021-12-05T08:34:03,42.805,6.029,-0.057,-0.001,-0.033,99.0,99.0,99.0,13.4,1505.2,327.5,-0.7,1.8,2470.719,13.28,0.057,269.0
2021-12-05T08:37:03,42.805,6.029,-0.027,-0.01,-0.042,100.0,100.0,99.0,13.4,1505.2,331.1,-0.7,1.8,2470.748,13.28,0.028,249.7
2021-12-05T08:40:03,42.805,6.029,-0.053,0.009,-0.019,99.0,100.0,99.0,13.4,1505.2,329.8,-0.7,1.8,2470.744,13.28,0.053,279.6
2021-12-05T08:43:03,42.805,6.029,-0.051,-0.025,-0.061,100.0,99.0,99.0,13.3,1505.2,326.8,-0.7,1.8,2470.695,13.28,0.056,243.9
2021-12-05T08:46:03,42.805,6.029,-0.03,-0.007,-0.008,99.0,100.0,99.0,13.4,1505.2,328.8,-0.7,1.9,2470.76,13.28,0.03,256.9
2021-12-05T08:49:03,42.805,6.029,-0.036,-0.013,-0.044,100.0,99.0,99.0,13.4,1505.2,329.3,-0.7,1.8,2470.693,13.28,0.038,250.1
2021-12-05T08:52:03,42.805,6.029,-0.049,-0.007,-0.04,100.0,99.0,99.0,13.4,1505.2,329.5,-0.7,1.8,2470.696,13.28,0.049,261.9
2021-12-05T08:55:03,42.805,6.029,-0.062,-0.032,-0.065,100.0,100.0,99.0,13.4,1505.2,329.7,-0.7,1.8,2470.757,13.28,0.069,242.7
2021-12-05T08:58:03,42.805,6.029,-0.052,0.0,-0.075,99.0,100.0,98.0,13.4,1505.2,331.4,-0.8,1.9,2470.737,13.28,0.052,270.0
2021-12-05T09:04:03,42.805,6.029,-0.033,-0.013,-0.071,99.0,100.0,100.0,13.3,1505.2,331.8,-0.8,1.8,2470.796,13.28,0.035,248.5
2021-12-05T09:07:03,42.805,6.029,-0.044,0.008,-0.062,100.0,99.0,99.0,13.4,1505.2,324.7,-0.8,1.8,2470.79,13.28,0.044,280.3
2021-12-05T09:10:03,42.805,6.029,-0.025,0.013,0.003,99.0,98.0,100.0,13.4,1505.2,329.7,-0.7,1.9,2470.722,13.28,0.028,297.5
2021-12-05T09:13:03,42.805,6.029,-0.047,0.012,-0.052,100.0,99.0,98.0,13.3,1505.2,327.0,-0.8,1.8,2470.778,13.28,0.048,284.3
2021-12-05T09:16:03,42.805,6.029,-0.043,-0.004,-0.028,101.0,99.0,98.0,13.4,1505.2,326.0,-0.7,1.8,2470.764,13.28,0.043,264.7
2021-12-05T09:19:03,42.805,6.029,-0.055,0.016,-0.038,101.0,98.0,98.0,13.4,1505.2,327.3,-0.8,1.9,2470.747,13.28,0.057,286.2
2021-12-05T09:22:03,42.805,6.029,-0.071,0.006,-0.05,101.0,99.0,98.0,13.3,1505.2,328.4,-0.7,1.8,2470.802,13.28,0.071,274.8
2021-12-05T09:25:03,42.805,6.029,-0.037,-0.005,-0.002,100.0,97.0,100.0,13.4,1505.2,324.8,-0.7,1.8,2470.768,13.28,0.037,262.3
2021-12-05T09:28:03,42.805,6.029,-0.048,0.015,-0.021,99.0,99.0,99.0,13.4,1505.2,327.1,-0.7,1.8,2470.793,13.28,0.05,287.4
2021-12-05T09:31:03,42.805,6.029,-0.044,0.011,-0.025,99.0,99.0,100.0,13.4,1505.2,329.4,-0.8,1.8,2470.77,13.28,0.045,284.0
2021-12-05T09:34:03,42.805,6.029,-0.05,0.002,-0.032,100.0,100.0,98.0,13.4,1505.2,331.2,-0.7,1.8,2470.801,13.28,0.05,272.3
2021-12-05T09:37:03,42.805,6.029,-0.04,-0.016,-0.059,99.0,99.0,102.0,13.3,1505.2,324.7,-0.8,1.8,2470.807,13.28,0.043,248.2
2021-12-05T09:40:03,42.805,6.029,-0.046,-0.007,-0.038,100.0,99.0,98.0,13.4,1505.2,329.9,-0.7,1.8,2470.781,13.28,0.046,261.3
2021-12-05T09:43:03,42.805,6.029,-0.041,0.002,-0.038,100.0,99.0,99.0,13.4,1505.2,327.2,-0.8,1.8,2470.757,13.28,0.041,272.8
2021-12-05T09:46:03,42.805,6.029,-0.055,-0.003,-0.014,100.0,100.0,99.0,13.3,1505.2,327.3,-0.8,1.8,2470.755,13.28,0.055,266.9
2021-12-05T09:49:03,42.805,6.029,-0.04,0.026,-0.009,100.0,100.0,99.0,13.4,1505.2,327.8,-0.8,1.8,2470.781,13.28,0.047,303.0
2021-12-05T09:52:03,42.805,6.029,-0.069,0.002,-0.052,98.0,100.0,99.0,13.4,1505.2,327.4,-0.8,1.8,2470.819,13.28,0.069,271.7
2021-12-05T09:55:03,42.805,6.029,-0.038,-0.005,-0.049,100.0,100.0,99.0,13.3,1505.2,326.8,-0.8,1.8,2470.811,13.28,0.038,262.5
2021-12-05T09:58:03,42.805,6.029,-0.056,0.013,-0.028,100.0,99.0,99.0,13.4,1505.2,326.8,-0.8,1.8,2470.782,13.28,0.057,283.1